Weather History for St. Joseph, MO

Change the Weather History Date:

Thursday, April 18, 2013

  Actual Average Record
Temperature  
Mean Temperature 39 °F 55 °F  
Max Temperature 43 °F 67 °F 90 °F (1972)
Min Temperature 34 °F 43 °F 28 °F (2014)
Degree Days  
Heating Degree Days 26 11  
Month to date heating degree days 313 238  
Since 1 July heating degree days 5266 5231  
Cooling Degree Days 0 1  
Month to date cooling degree days 0 11  
Year to date cooling degree days 0 13  
Moisture  
Dew Point 34 °F    
Average Humidity 82    
Maximum Humidity 100    
Minimum Humidity 64    
Precipitation  
Precipitation 0.22 in 0.13 in 2.54 in (1920)
Month to date precipitation 2.91 1.91  
Year to date precipitation 6.00 5.65  
Sea Level Pressure  
Sea Level Pressure 29.75 in    
Wind  
Wind Speed 19 mph (NW)    
Max Wind Speed 29 mph    
Max Gust Speed 38 mph    
Visibility 8 miles    
Events Rain , Thunderstorm    
T = Trace of Precipitation, MM = Missing Value Source: NWS Daily Summary

Daily Weather History Graph

Daily Weather History Graph

Search for Another Location

Airport:

Trip Planner

Search our weather history database for the weather conditions in past years. The results will help you decide how hot, cold, wet, or windy it might be!

Date:

Astronomy

Apr. 18, 2013 Rise Set
Actual Time 6:37 AM CDT 8:01 PM CDT
Civil Twilight 6:09 AM CDT 8:29 PM CDT
Nautical Twilight 5:35 AM CDT 9:03 PM CDT
Astronomical Twilight 4:59 AM CDT 9:39 PM CDT
Moon 12:50 PM CDT (4/18) 2:16 AM CDT (4/18)
Length of Visible Light 14h 20m
Length of Day
13h 23m
First Quarter, 52% of the Moon is Illuminated
Apr 18
First Quarter
Apr 25
Full
May 2
Last Quarter
May 9
New
May 17
First Quarter

Hourly Weather History & Observations

Time (CDT) Temp. Windchill Dew Point Humidity Pressure Visibility Wind Dir Wind Speed Gust Speed Precip Events Conditions
12:53 AM 43.0 °F 35.1 °F 41.0 °F 93% 29.73 in 10.0 mi NNW 17.3 mph - 0.00 in   Overcast
1:42 AM 42.8 °F 36.2 °F 39.2 °F 87% 29.70 in 6.0 mi North 12.7 mph 21.9 mph 0.13 in Rain Rain
1:53 AM 42.1 °F 34.5 °F 39.0 °F 89% 29.70 in 4.0 mi NNW 15.0 mph - 0.17 in Rain Heavy Rain
2:34 AM 42.8 °F 37.5 °F 39.2 °F 87% 29.66 in 8.0 mi North 9.2 mph - 0.01 in Rain Light Rain
2:53 AM 42.1 °F 34.2 °F 39.0 °F 89% 29.67 in 7.0 mi NNW 16.1 mph - 0.03 in Rain Rain
3:53 AM 41.0 °F 33.1 °F 39.0 °F 93% 29.65 in 7.0 mi North 15.0 mph - 0.00 in   Overcast
4:08 AM 41.0 °F 33.9 °F 39.2 °F 93% 29.65 in 5.0 mi North 12.7 mph - N/A Thunderstorm Overcast
4:30 AM 39.2 °F 30.8 °F 39.2 °F 100% 29.64 in 4.0 mi NNW 15.0 mph - 0.00 in Rain Light Rain
4:53 AM 39.9 °F 30.8 °F 39.0 °F 97% 29.62 in 8.0 mi North 18.4 mph - 0.00 in   Overcast
5:53 AM 39.0 °F 30.3 °F 37.9 °F 96% 29.62 in 10.0 mi NNW 16.1 mph 23.0 mph N/A   Overcast
6:53 AM 39.0 °F 31.0 °F 37.0 °F 93% 29.65 in 4.0 mi NNW 13.8 mph - 0.01 in Rain Light Rain
7:06 AM 39.2 °F 31.2 °F 37.4 °F 93% 29.64 in 2.5 mi NNW 13.8 mph - 0.00 in Rain Light Rain
7:20 AM 37.4 °F 29.3 °F 37.4 °F 100% 29.65 in 3.0 mi NW 12.7 mph - 0.01 in Rain Light Rain
7:53 AM 37.9 °F 28.9 °F 37.0 °F 97% 29.67 in 7.0 mi NW 16.1 mph - 0.01 in   Overcast
8:16 AM 37.4 °F 27.8 °F 35.6 °F 93% 29.66 in 10.0 mi NW 17.3 mph 25.3 mph N/A   Overcast
8:45 AM 37.4 °F 27.2 °F 35.6 °F 93% 29.67 in 2.0 mi NW 19.6 mph 24.2 mph 0.00 in Rain Light Rain
8:53 AM 37.9 °F 27.9 °F 35.1 °F 89% 29.67 in 2.0 mi NW 19.6 mph - 0.00 in Rain Light Rain
9:03 AM 37.4 °F 26.6 °F 35.6 °F 93% 29.66 in 3.0 mi NW 21.9 mph 29.9 mph 0.00 in   Overcast
9:13 AM 39.2 °F 29.8 °F 35.6 °F 87% 29.66 in 4.0 mi NNW 18.4 mph - 0.00 in   Overcast
9:22 AM 37.4 °F 26.4 °F 35.6 °F 93% 29.66 in 6.0 mi NNW 23.0 mph 28.8 mph 0.00 in   Overcast
9:29 AM 37.4 °F 28.2 °F 35.6 °F 93% 29.67 in 7.0 mi NW 16.1 mph 28.8 mph 0.00 in   Overcast
9:53 AM 37.0 °F 27.0 °F 34.0 °F 89% 29.68 in 4.0 mi NW 18.4 mph 27.6 mph 0.00 in   Overcast
10:53 AM 39.0 °F 29.6 °F 35.1 °F 86% 29.71 in 8.0 mi NW 18.4 mph 28.8 mph N/A   Overcast
11:53 AM 39.0 °F 28.8 °F 35.1 °F 86% 29.72 in 10.0 mi WNW 21.9 mph 31.1 mph 0.00 in Rain Light Rain
12:14 PM 37.4 °F 26.1 °F 33.8 °F 87% 29.72 in 10.0 mi WNW 24.2 mph 34.5 mph 0.00 in   Overcast
12:53 PM 37.9 °F 27.9 °F 34.0 °F 86% 29.75 in 10.0 mi NW 19.6 mph 28.8 mph 0.00 in   Overcast
1:53 PM 39.0 °F 28.5 °F 32.0 °F 76% 29.78 in 10.0 mi NW 23.0 mph 31.1 mph N/A   Overcast
2:53 PM 37.9 °F 27.1 °F 30.9 °F 76% 29.81 in 10.0 mi NW 23.0 mph 29.9 mph N/A   Overcast
3:53 PM 37.9 °F 26.8 °F 30.0 °F 73% 29.81 in 10.0 mi NW 24.2 mph 31.1 mph N/A   Overcast
4:53 PM 39.0 °F 29.0 °F 30.9 °F 73% 29.83 in 10.0 mi NW 20.7 mph 31.1 mph N/A   Overcast
5:48 PM 39.2 °F 28.7 °F 30.2 °F 70% 29.84 in 10.0 mi NW 23.0 mph 31.1 mph N/A   Overcast
5:53 PM 39.0 °F 29.0 °F 28.9 °F 67% 29.86 in 10.0 mi WNW 20.7 mph 31.1 mph N/A   Overcast
6:53 PM 39.0 °F 29.3 °F 28.0 °F 65% 29.88 in 10.0 mi WNW 19.6 mph 28.8 mph N/A   Overcast
7:53 PM 37.9 °F 27.6 °F 28.0 °F 68% 29.89 in 10.0 mi WNW 20.7 mph 29.9 mph N/A   Overcast
8:53 PM 37.0 °F 27.7 °F 28.0 °F 70% 29.91 in 10.0 mi NW 16.1 mph 25.3 mph N/A   Overcast
9:53 PM 37.0 °F 26.7 °F 28.0 °F 70% 29.94 in 10.0 mi NW 19.6 mph - N/A   Overcast
10:00 PM 37.4 °F 27.5 °F 28.4 °F 70% 29.92 in 10.0 mi NW 18.4 mph 28.8 mph N/A   Overcast
10:44 PM 35.6 °F 23.7 °F 26.6 °F 70% 29.91 in 10.0 mi NW 24.2 mph 33.4 mph N/A   Overcast
10:53 PM 36.0 °F 25.0 °F 26.1 °F 67% 29.94 in 10.0 mi NW 20.7 mph 33.4 mph N/A   Overcast
11:32 PM 35.6 °F 24.8 °F 26.6 °F 70% 29.91 in 10.0 mi WNW 19.6 mph - N/A   Overcast
11:53 PM 35.1 °F 25.2 °F 26.1 °F 70% 29.93 in 10.0 mi NW 16.1 mph - N/A   Overcast